Location: ??????
(38.0677°N, 22.9870°E)
Time: 20:59:41
(UTC+00:00)

SL-16 R/B - Pass Details

Date: 23 May 2024
Orbit: 984 x 1007 km, 99.7° (Epoch: 14 May)

Event Time Altitude Azimuth Distance (km) Brightness Sun altitude
Exits shadow 00:08:03 - 132° (SE) 3,367 5.2 -26.5°
Reaches altitude 10° 00:09:47 10° 125° (SE) 2,774 4.8 -26.3°
Maximum altitude 00:15:11 32° 65° (ENE) 1,657 4.1 -25.8°
Drops below altitude 10° 00:20:37 10° 5° (N) 2,790 5.7 -25.3°
Sets 00:23:21 0° 356° (N) 3,743 6.4 -25.0°
